Date String (YYYY-MM-DD hh:mm:ss) UTC,Instrument flags,Ambient pressure (hPa),Sample flow (lpm),Bypass flow (lpm),Sample temperature (°C),Ambient temperature (°C),ASC tube jacket temperature (°C),LED temperature (°C),Box temperature (°C),Sample RH (%),Mass concentration (μg/m³),Mass concentration (μg/m³)
DateTimeUTC,F1_M11,P_M11,Q1_M11,Q2_M11,T1_M11,T2_M11,T3_M11,T4_M11,T5_M11,U1_M11,X2_M11,X0_M11
2021-08-19 09:00:00,,0823.8,4.99,0.00,29.7,28.7,00.0,38.7,31.5,33.2,0013.98,0024.72
2021-08-19 09:01:00,,0823.8,4.99,0.00,29.7,28.8,00.0,38.7,31.6,33.2,0013.95,0023.75
2021-08-19 09:02:00,,0823.8,5.01,0.00,29.7,28.8,00.0,38.7,31.6,33.1,0013.92,0022.93
2021-08-19 09:03:00,,0823.8,5.00,0.00,29.8,28.9,00.0,38.7,31.7,33.1,0013.95,0022.80
2021-08-19 09:04:00,,0823.8,5.00,0.00,29.8,29.0,00.0,38.8,31.7,33.0,0013.90,0022.59
2021-08-19 09:05:00,,0823.8,5.00,0.00,29.8,29.0,00.0,38.8,31.8,32.9,0013.92,0022.13
2021-08-19 09:06:00,,0823.9,5.00,0.00,29.9,29.0,00.0,38.8,31.7,32.9,0013.89,0021.71
2021-08-19 09:07:00,,0824.0,5.01,0.00,29.9,28.9,00.0,38.8,31.7,32.8,0013.85,0021.40
2021-08-19 09:08:00,,0824.0,5.00,0.00,29.8,27.3,00.0,38.8,31.3,32.9,0013.84,0021.42
2021-08-19 09:09:00,,0824.1,5.00,0.00,29.7,26.5,00.0,38.8,31.1,33.2,0013.79,0021.10
2021-08-19 09:10:00,,0824.1,5.00,0.00,29.6,26.6,00.0,38.8,31.1,33.4,0013.75,0021.31
2021-08-19 09:11:00,,0824.1,5.00,0.00,29.6,27.0,00.0,38.8,31.2,33.6,0013.79,0021.70
2021-08-19 09:12:00,,0824.0,4.99,0.00,29.6,27.4,00.0,38.7,31.3,33.9,0013.84,0021.52
2021-08-19 09:13:00,,0823.9,5.00,0.00,29.6,27.7,00.0,38.7,31.3,33.8,0013.84,0022.46
2021-08-19 09:14:00,,0823.9,5.00,0.00,29.6,27.9,00.0,38.7,31.4,33.8,0013.83,0023.66
2021-08-19 09:15:00,,0823.8,5.01,0.00,29.6,28.1,00.0,38.7,31.4,33.8,0013.81,0023.89
2021-08-19 09:16:00,,0823.7,4.99,0.00,29.6,28.3,00.0,38.7,31.5,33.8,0013.75,0024.33
2021-08-19 09:17:00,,0823.7,5.00,0.00,29.7,28.5,00.0,38.7,31.5,33.9,0013.75,0024.91
2021-08-19 09:18:00,,0823.7,4.99,0.00,29.7,28.6,00.0,38.8,31.6,34.0,0013.74,0025.53
2021-08-19 09:19:00,,0823.7,5.00,0.00,29.7,28.7,00.0,38.8,31.6,33.9,0013.75,0026.29
2021-08-19 09:20:00,,0823.7,5.00,0.00,29.8,28.7,00.0,38.8,31.7,33.7,0013.79,0026.65
2021-08-19 09:21:00,,0823.8,5.00,0.00,29.8,28.8,00.0,38.8,31.7,33.6,0013.77,0026.62
2021-08-19 09:22:00,,0823.8,5.00,0.00,29.8,28.9,00.0,38.8,31.7,33.6,0013.71,0026.76
2021-08-19 09:23:00,,0824.0,5.01,0.00,29.9,29.0,00.0,38.9,31.8,33.4,0013.70,0027.84
2021-08-19 09:24:00,,0824.0,5.00,0.00,29.9,28.9,00.0,38.9,31.8,33.3,0013.68,0027.18
2021-08-19 09:25:00,,0824.0,5.00,0.00,29.9,27.4,00.0,38.9,31.3,33.4,0013.60,0025.81
2021-08-19 09:26:00,,0824.0,5.00,0.00,29.6,25.8,00.0,38.8,30.8,33.6,0013.54,0026.16
2021-08-19 09:27:00,,0824.0,5.00,0.00,29.5,25.5,00.0,38.8,30.8,33.9,0013.49,0025.49
2021-08-19 09:28:00,,0824.0,5.00,0.00,29.4,25.9,00.0,38.7,30.8,34.1,0013.43,0025.20
2021-08-19 09:29:00,,0824.0,5.01,0.00,29.4,26.4,00.0,38.7,30.9,34.3,0013.37,0024.80
2021-08-19 09:30:00,,0824.0,5.00,0.00,29.4,26.9,00.0,38.6,31.0,34.3,0013.34,0024.89
2021-08-19 09:31:00,,0824.0,5.01,0.00,29.4,27.2,00.0,38.6,31.1,34.3,0013.30,0024.83
2021-08-19 09:32:00,,0824.1,4.99,0.00,29.4,27.6,00.0,38.6,31.2,34.3,0013.28,0024.75
2021-08-19 09:33:00,,0824.1,5.01,0.00,29.4,27.8,00.0,38.6,31.2,34.2,0013.26,0023.99
2021-08-19 09:34:00,,0824.1,4.99,0.00,29.4,28.0,00.0,38.6,31.3,34.2,0013.15,0023.24
2021-08-19 09:35:00,,0824.1,5.00,0.00,29.5,28.2,00.0,38.6,31.3,33.9,0013.08,0022.70
2021-08-19 09:36:00,,0824.1,5.01,0.00,29.5,28.3,00.0,38.6,31.4,33.8,0013.04,0022.82
2021-08-19 09:37:00,,0824.1,4.98,0.00,29.6,28.5,00.0,38.6,31.4,33.7,0013.00,0022.25
2021-08-19 09:38:00,,0824.1,5.01,0.00,29.6,28.6,00.0,38.6,31.5,33.5,0013.00,0022.53
2021-08-19 09:39:00,,0824.1,4.98,0.00,29.6,28.7,00.0,38.7,31.5,33.4,0013.02,0022.57
2021-08-19 09:40:00,,0824.1,5.01,0.00,29.7,28.8,00.0,38.7,31.6,33.3,0013.01,0022.50
2021-08-19 09:41:00,,0824.1,5.00,0.00,29.7,28.8,00.0,38.7,31.6,33.3,0012.94,0022.07
2021-08-19 09:42:00,,0824.1,5.01,0.00,29.8,28.9,00.0,38.7,31.7,32.9,0012.89,0021.77
2021-08-19 09:43:00,,0824.1,4.99,0.00,29.8,29.0,00.0,38.7,31.7,32.7,0012.83,0021.26
2021-08-19 09:44:00,,0824.1,5.01,0.00,29.8,29.0,00.0,38.8,31.8,32.5,0012.73,0020.99
2021-08-19 09:45:00,,0824.1,5.01,0.00,29.9,29.1,00.0,38.8,31.8,32.3,0012.69,0020.53
2021-08-19 09:46:00,,0824.2,4.98,0.00,29.9,29.1,00.0,38.8,31.8,32.2,0012.70,0020.84
2021-08-19 09:47:00,,0824.2,5.02,0.00,29.9,29.2,00.0,38.9,31.9,32.1,0012.70,0020.59
2021-08-19 09:48:00,,0824.2,4.99,0.00,30.0,29.2,00.0,38.9,31.9,32.0,0012.64,0020.19
2021-08-19 09:49:00,,0824.2,5.00,0.00,30.0,29.2,00.0,38.9,31.9,31.9,0012.53,0019.70
2021-08-19 09:50:00,,0824.1,5.01,0.00,30.0,27.6,00.0,38.9,31.5,31.9,0012.44,0019.66
2021-08-19 09:51:00,,0824.1,4.99,0.00,29.8,26.0,00.0,38.9,31.0,32.2,0012.35,0019.96
2021-08-19 09:52:00,,0824.1,5.02,0.00,29.6,25.6,00.0,38.8,30.9,32.4,0012.38,0019.99
2021-08-19 09:53:00,,0824.1,4.99,0.00,29.5,26.0,00.0,38.8,31.0,32.6,0012.36,0020.08
2021-08-19 09:54:00,,0824.1,5.00,0.00,29.4,26.4,00.0,38.8,31.0,32.6,0012.30,0019.97
2021-08-19 09:55:00,,0824.1,5.00,0.00,29.4,26.9,00.0,38.7,31.1,32.7,0012.28,0020.08
2021-08-19 09:56:00,,0824.2,4.99,0.00,29.4,27.3,00.0,38.7,31.2,32.6,0012.29,0020.25
2021-08-19 09:57:00,,0824.2,5.00,0.00,29.5,27.6,00.0,38.7,31.2,32.7,0012.20,0020.00
2021-08-19 09:58:00,,0824.3,4.99,0.00,29.5,27.9,00.0,38.7,31.3,32.6,0012.16,0020.01
2021-08-19 09:59:00,,0824.3,5.00,0.00,29.5,28.1,00.0,38.7,31.4,32.5,0012.12,0019.84
